Location: ??????
(38.3113°N, 23.8187°E)
Time: 12:54:48
(UTC+00:00)

Daily predictions for brighter satellites

Satellite Brightness Start Highest point End
(mag) Time Altitude Azimuth Time Altitude Azimuth Time Altitude Azimuth
Cosmos 407 Rocket 4.3 18:14:33 10° NNW 18:19:32 51° WSW 18:24:26 10° S
Cosmos 1745 Rocket 4.2 18:13:42 10° N 18:19:53 79° W 18:26:05 10° S
IGS 5A 3.4 18:16:11 10° SSE 18:20:19 78° ENE 18:24:27 10° N
BREEZE-M DEB (TANK) 2.4 18:18:43 10° WNW 18:20:46 47° SW 18:23:41 10° SE
Cosmos 1697 Rocket 4.4 18:17:31 10° N 18:21:17 18° NE 18:25:01 10° E
CSL-04 Rocket 4.0 18:16:35 10° S 18:22:07 77° WSW 18:27:42 10° NNW
Cosmos 1190 Rocket 4.3 18:18:31 10° NNW 18:23:49 74° WSW 18:29:04 10° S
Cosmos 1455 Rocket 3.0 18:21:02 10° N 18:25:21 77° E 18:29:40 10° S
H-2A R/B 2.3 18:21:52 10° SSE 18:25:39 88° WSW 18:29:31 10° NNW
TSX-5 4.3 18:23:06 10° SSW 18:27:22 85° ESE 18:32:58 10° NNE
ARGOS Delta rocket 3.8 18:23:53 10° N 18:28:24 82° W 18:32:47 10° SSW
Lacrosse 5 rocket 2.8 18:28:03 10° WNW 18:31:28 30° SW 18:35:01 10° S
COSMOS 2406 4.2 18:30:36 10° SSE 18:35:13 26° ESE 18:39:52 10° NE
Resurs 01 Rocket 2.0 18:33:12 10° SSE 18:37:27 47° ENE 18:41:44 10° N
Cosmos 1833 Rocket 2.8 18:35:39 10° S 18:41:02 51° ESE 18:46:28 10° NNE
GOES 2 Rocket 4.5 18:37:39 10° SW 18:41:03 22° SSE 18:44:27 12° ESE
H-2A R/B 2.2 18:47:19 10° NNE 18:51:49 87° W 18:56:19 10° SSW
Cosmos 1536 Rocket 3.7 18:47:43 10° S 18:51:54 53° E 18:56:09 10° NNE
Okean-O 4.4 18:48:46 10° SSW 18:52:39 30° W 18:56:35 10° NW
Cosmos 676 Rocket 4.3 18:47:47 10° NNW 18:53:02 67° WSW 18:58:13 10° S
Cosmos 1703 3.7 18:51:35 11° SSE 18:55:02 40° E 18:58:39 10° NNE
CARTOSAT-1 4.4 18:52:10 15° SE 18:55:14 34° ENE 18:59:08 10° N
Ariane Rocket 3.3 18:51:38 12° SSE 18:56:08 54° ENE 19:01:06 10° N
IRS-1A Rocket 4.4 18:53:38 10° SSE 18:59:32 79° ENE 19:05:25 10° N
ATLAS 2AS CENTAUR R/B 3.0 18:56:38 10° NW 19:03:29 61° WSW 19:09:29 12° SSE
ASTRO E2 3.9 19:00:47 10° SW 19:03:52 22° SSE 19:04:55 20° SE
SPOT 3 Rocket 4.1 19:03:41 17° SE 19:07:20 44° ENE 19:12:15 10° N
Terra 3.6 19:05:11 13° E 19:07:34 18° ENE 19:10:45 10° NNE
PSLV R/B 4.5 19:03:50 10° N 19:07:58 62° WNW 19:12:05 10° SSW
SPOT 5 3.9 19:07:44 17° ESE 19:09:52 25° ENE 19:13:23 10° NNE
SL-24 R/B 4.3 19:07:33 17° SSE 19:10:54 71° ENE 19:15:48 10° N
CZ-4B R/B 1.6 19:13:04 10° N 19:15:54 56° WNW 19:18:45 10° SSW
Cosmos 1544 Rocket 4.2 19:13:56 10° NNW 19:18:10 52° W 19:22:23 10° S
RESURS DK-1 2.3 19:14:35 10° NNW 19:18:44 79° ENE 19:21:03 25° SSE
Cosmos 2082 Rocket 2.6 19:13:54 11° S 19:19:04 42° ESE 19:24:26 10° NE
Cosmos 1331 Rocket 4.0 19:14:24 10° SSW 19:19:42 90° E 19:25:02 10° NNE
Cosmos 1850 Rocket 3.9 19:16:14 10° NNW 19:21:27 82° ENE 19:24:50 22° SSE
Cosmos 2074 Rocket 4.0 19:15:44 10° N 19:21:59 71° E 19:26:38 19° SSE
Cosmos 1271 Rocket 3.9 19:18:22 10° NNW 19:22:05 40° W 19:25:43 10° SSW
Cosmos 1455 3.3 19:19:02 10° NNW 19:22:40 42° W 19:26:11 11° SSW
IRAS Rocket 4.2 19:17:22 10° NNE 19:22:58 86° ESE 19:28:30 10° SSW
Spot 2 Rocket 4.1 19:23:52 23° SE 19:26:32 42° ENE 19:31:19 10° N
Cosmos 2360 4.5 19:21:01 10° NNW 19:26:41 57° ENE 19:29:57 25° SE
Nadezhda 1 Rocket 4.0 19:22:07 16° SSE 19:26:59 60° E 19:32:57 10° NNE
Helios 1A Rocket 3.8 19:28:47 27° ESE 19:30:12 35° ENE 19:33:56 10° N
Cosmos 1328 4.1 19:29:38 31° SE 19:31:03 46° E 19:34:53 10° NNE
GEOS 3 Rocket 3.5 19:28:10 25° SSE 19:31:16 86° SW 19:36:24 10° NW
SPOT 1/Viking Rocket 4.2 19:31:17 12° S 19:35:48 50° W 19:40:50 10° NNW
Cosmos 2084 Rocket 4.1 19:32:12 10° NNW 19:35:55 38° NE 19:37:25 28° E
Lacrosse 5 3.6 19:32:44 10° WNW 19:36:41 23° WSW 19:39:55 13° SSW
Cosmos 1900 4.5 19:32:22 10° NNW 19:37:31 69° ENE 19:39:54 31° SE
Delta 2 Rocket 3.0 19:37:37 10° W 19:40:51 47° S 19:40:57 47° S
ERS-1 Rocket 3.2 19:42:08 31° SE 19:44:16 54° ENE 19:49:10 10° N
Meteor 1-21 Rocket 4.3 19:40:51 12° S 19:45:59 82° W 19:51:42 10° N
ATLAS 5 CENTAUR R/B 3.7 19:42:13 10° NW 19:49:10 29° WSW 19:51:22 17° SSW
Cosmos 1892 3.7 19:51:38 29° E 19:51:38 29° E 19:54:34 10° NNE
Cosmos 1302 Rocket 3.9 19:47:40 17° SSW 19:51:46 84° ESE 19:56:58 10° NNE
Cosmos 1610 Rocket 4.5 19:45:59 10° N 19:52:15 77° E 19:55:38 30° SSE
X-37B 0.7 19:51:38 10° WNW 19:54:15 59° N 19:54:15 59° N
Cosmos 2154 Rocket 3.9 19:50:02 10° N 19:56:16 88° W 19:59:44 28° S
Cosmos 192 4.5 19:51:47 12° SSW 19:56:19 74° WNW 20:01:14 10° NNE
SL-8 R/B 3.6 19:55:12 10° WNW 20:00:00 76° SW 20:01:22 46° SE
Cosmos 2228 3.4 19:56:42 10° NNW 20:00:51 56° W 20:02:34 32° SSW
Cosmos 1892 Rocket 3.4 20:00:53 47° SSE 20:02:02 73° E 20:06:24 10° NNE
Cosmos 968 Rocket 3.7 19:59:49 10° N 20:04:59 59° ENE 20:06:30 42° SE
Cosmos 1697 Rocket 2.9 20:00:10 10° NNW 20:05:44 66° WSW 20:08:06 34° S
Cosmos 1980 Rocket 2.3 20:00:48 10° NNW 20:06:28 62° ENE 20:08:21 40° SE
SL-16 R/B 4.1 20:04:53 10° N 20:08:41 18° NE 20:11:07 14° E
ATLAS 5 CENTAUR R/B 0.9 20:09:30 75° S 20:09:46 84° ESE 20:13:42 10° NE
USA 267 3.5 20:04:27 10° ENE 20:10:35 41° SE 20:12:17 35° SSE
SL-8 Rocket 4.4 20:05:41 10° N 20:11:37 45° ENE 20:13:23 36° ESE
Resurs 01 Rocket 4.2 20:11:47 10° SW 20:14:11 14° W 20:16:34 10° WNW
Cosmos 1408 2.6 20:14:47 65° NNE 20:14:47 65° NNE 20:17:49 10° N
Cosmos 2369 3.7 20:08:59 10° NNW 20:14:46 82° ENE 20:16:35 45° SSE
Cosmos 2058 Rocket 3.3 20:11:21 10° N 20:15:42 53° E 20:16:04 51° E
In-Cosmos 22 Rocket 4.3 20:17:20 46° SE 20:18:29 55° E 20:23:47 10° NNE
CZ-2C R/B 3.9 20:14:18 10° N 20:18:46 65° WNW 20:20:34 34° SW
COSMOS 2406 4.4 20:13:48 10° SW 20:19:14 42° WNW 20:24:42 10° N
Meteor 2-1 Rocket 4.5 20:14:32 10° NNW 20:19:59 62° W 20:22:19 34° SSW
Cosmos 2344 4.4 20:11:28 10° NNW 20:21:00 84° ENE 20:28:17 31° SE
SJ 16-02 3.7 20:24:14 10° NE 20:26:04 12° ENE 20:26:38 12° ENE
Cosmos 2366 rocket 4.2 20:25:47 10° N 20:32:02 56° E 20:33:35 45° SE
Cosmos 1825 3.1 20:33:23 40° NE 20:33:23 40° NE 20:36:03 10° NNE
Cosmos 1867 3.5 20:28:07 10° NNW 20:33:37 84° ENE 20:34:38 60° SE
Cosmos 2218 Rocket 4.1 20:32:03 10° N 20:38:25 63° E 20:39:55 49° SE
Cosmos 2322 Rocket 3.8 20:38:28 10° N 20:43:00 24° NE 20:44:41 21° E
Cosmos 1869 4.1 20:39:58 10° N 20:42:59 42° NE 20:42:59 42° NE
Meteor 1-27 4.2 20:38:52 10° N 20:44:24 64° E 20:45:08 58° ESE
ARIANE 5 R/B 2.8 20:44:14 60° WSW 20:44:30 62° W 20:48:54 10° NNW
Terra 2.5 20:44:04 41° SW 20:44:56 45° W 20:49:30 10° NNW
SPOT 5 4.2 20:46:57 23° WSW 20:47:52 25° W 20:51:28 10° NW
Cosmos 1959 Rocket 4.4 20:42:33 10° N 20:48:40 73° E 20:49:51 57° SE
GP-B 3.0 20:44:36 10° N 20:49:01 83° WNW 20:49:01 83° WNW
Cosmos 2278 3.5 20:50:57 10° NNW 20:56:42 88° WSW 20:57:25 70° SSE
Cosmos 2341 Rocket 4.2 20:51:20 10° NNW 20:57:32 63° W 20:59:17 45° SSW
Cosmos 864 Rocket 4.4 20:52:29 10° N 20:58:43 88° E 20:59:56 61° S
Cosmos 2082 Rocket 4.1 20:58:31 10° WSW 21:03:17 27° WNW 21:08:04 10° N
Cosmos 2333 Rocket 4.5 21:00:19 10° NNE 21:03:20 14° NE 21:06:07 11° E
Cosmos 1633 4.4 21:05:14 26° NNE 21:05:14 26° NNE 21:06:55 10° NNE
Okean 1-7 Rocket 3.9 21:03:33 60° W 21:03:33 60° W 21:07:59 10° N
Cosmos 1758 Rocket 4.4 21:05:17 42° NE 21:05:17 42° NE 21:08:29 10° NNE
ADEOS Rocket 4.3 21:06:17 32° ESE 21:08:40 40° ENE 21:15:42 10° N
Cosmos 1486 Rocket 3.9 21:04:25 10° NNW 21:09:41 83° WSW 21:09:45 82° SW
ASTEX 1 4.0 21:06:05 10° N 21:10:53 49° W 21:11:40 45° WSW
Gbstr 26 Del rocket 3.9 21:16:36 41° NE 21:16:36 41° NE 21:19:51 10° NE
Cosmos 2360 Rocket 3.5 21:12:45 10° N 21:17:37 28° ENE 21:18:48 26° ENE
Cosmos-2242 3.9 21:15:15 10° N 21:18:22 42° NNE 21:18:22 42° NNE
Cosmos 1812 Rocket 4.1 21:15:25 10° N 21:19:01 55° NNE 21:19:01 55° NNE
Cosmos 1606 4.5 21:17:19 10° N 21:19:29 27° NE 21:19:29 27° NE
Cosmos 1821 Rocket 3.8 21:20:03 10° N 21:26:15 72° E 21:26:44 68° ESE
Cosmos 1602 Rocket 4.3 21:28:28 50° NW 21:28:28 50° NW 21:32:02 10° N
CENTAUR R/B 4.2 21:35:22 16° E 21:35:22 16° E 21:37:43 10° ENE
Cosmos 44 4.3 21:35:47 35° NE 21:35:47 35° NE 21:38:27 10° NE
Cosmos 1354 Rocket 4.0 21:34:16 10° NNW 21:39:12 77° N 21:39:12 77° N
Cosmos 2237 4.3 21:34:40 10° NNW 21:40:22 67° ENE 21:40:30 66° ENE
Spot 4 4.1 21:42:42 65° NNW 21:42:42 65° NNW 21:46:49 10° NNW
ALOS 2 3.5 21:44:13 46° NNE 21:44:13 46° NNE 21:47:32 10° N
Nadezhda 3 Rocket 3.8 21:43:20 76° SW 21:43:48 83° W 21:50:00 10° N
Cosmos 1503 Rocket 4.3 21:42:53 10° NNW 21:47:32 59° WNW 21:47:32 59° WNW
Cosmos 1980 Rocket 4.1 21:46:24 10° WNW 21:49:50 17° W 21:50:07 16° WSW
Cosmos 2058 4.1 21:53:50 40° N 21:53:50 40° N 21:56:36 10° N
SL-16 R/B 2.3 21:47:40 10° NNW 21:52:57 66° W 21:52:57 66° W
Cosmos 1777 Rocket 4.2 21:48:04 10° NNW 21:52:54 69° NNE 21:52:54 69° NNE
Cosmos 2219 Rocket 3.9 21:48:49 10° N 21:53:23 24° NE 21:55:00 21° E
USA 267 3.8 21:47:18 10° NE 21:53:39 54° NW 21:59:31 12° WSW
Meteor 2-2 Rocket 4.3 21:55:13 10° N 22:01:16 76° E 22:01:20 76° E
SL-4 R/B 4.2 22:04:44 20° NNW 22:04:45 20° NNW 22:07:31 10° NNE
SJ 16-02 2.5 22:00:39 10° NNW 22:03:35 39° NW 22:03:35 39° NW
Cosmos 2221 3.8 22:12:27 10° N 22:15:26 39° NNE 22:15:26 39° NNE
Nimbus 7 Rocket 4.4 22:17:55 10° NNE 22:23:46 74° E 22:23:46 74° E
USA 234 3.7 22:22:04 32° ESE 22:25:06 58° NE 22:31:31 10° NW
Cosmos 2322 Rocket 2.8 22:21:49 10° NW 22:26:28 45° W 22:26:28 45° W
Cosmos 1934 Rocket 4.0 22:28:42 10° NNW 22:34:45 65° W 22:34:45 65° W
Cosmos 1763 Rocket 3.7 22:41:35 67° NNE 22:41:35 67° NNE 22:46:10 10° NNE
Resurs 1-4 Rocket 4.2 22:44:45 10° NE 22:47:55 16° E 22:48:00 16° E
Cosmos 2333 Rocket 2.2 22:42:37 10° NNW 22:48:05 81° NNW 22:48:05 81° NNW
Cosmos 841 Rocket 4.4 22:53:16 40° ENE 22:53:16 40° ENE 22:57:16 10° NNE
ADEOS Rocket 4.1 22:53:13 40° WSW 22:53:58 41° W 23:01:08 10° NNW
Cosmos 990 Rocket 4.2 22:52:55 10° NNW 22:57:26 67° N 22:57:26 67° N
Cosmos 1727 Rocket 3.9 22:58:59 79° SE 22:59:19 82° E 23:05:37 10° N
ISS -0.8 23:00:48 17° N 23:00:48 17° N 23:02:33 10° NNE
Cosmos 2227 Rocket 3.9 23:00:37 20° E 23:00:37 20° E 23:04:28 10° NE
Cosmos 2360 Rocket 3.2 22:56:27 10° NW 23:00:32 35° WNW 23:00:32 35° WNW
CZ-2D R/B 3.8 22:59:22 10° NE 23:03:17 21° E 23:03:21 21° E
Meteor 2-3 Rocket 3.9 23:04:49 63° WNW 23:04:49 63° WNW 23:10:10 10° N
Cosmos 540 Rocket 3.6 23:10:08 69° N 23:10:08 69° N 23:14:44 10° NNE
Cosmos 468 Rocket 4.4 23:10:37 54° WNW 23:10:37 54° WNW 23:15:36 10° N
Thor Agena Rocket 4.3 23:06:39 10° NNE 23:11:09 41° E 23:11:09 41° E
SL-16 R/B 4.5 23:07:07 11° ESE 23:11:38 23° ENE 23:16:20 10° NNE
NOSS 3-2 (A) 3.3 23:13:40 63° WNW 23:13:56 64° NW 23:20:02 10° NNE
ADEOS II 4.3 23:11:20 10° ENE 23:14:00 14° E 23:14:55 13° ESE
CENTAUR R/B 2.5 23:22:31 57° W 23:23:18 63° NW 23:30:02 10° NNE
Timation 1 Rocket 4.2 23:23:19 83° SSW 23:23:33 89° ESE 23:29:36 10° NNE
Cosmos 2100 Rocket 4.1 23:17:13 10° N 23:23:36 71° E 23:24:36 60° SE
Cosmos 1782 4.5 23:20:13 10° NNW 23:22:20 29° NNW 23:22:20 29° NNW
Cosmos 2173 Rocket 4.1 23:19:37 10° N 23:26:01 70° E 23:27:07 58° SE
Cosmos 2123 Rocket 4.4 23:25:28 47° ESE 23:26:32 52° E 23:32:38 10° NNE
Cosmos 2237 Rocket 3.5 23:23:14 10° N 23:28:22 34° ENE 23:31:24 21° ESE
Cosmos 2297 Rocket 2.4 23:29:18 56° ESE 23:29:20 56° ESE 23:34:51 10° NNE
Cosmos 2151 4.4 23:31:03 31° NW 23:31:03 31° NW 23:33:56 10° N
Cosmos 2219 4.2 23:33:09 33° ESE 23:33:28 33° ESE 23:38:28 10° NE
COSMOS 2428 2.6 23:29:04 10° NNW 23:34:37 75° W 23:34:37 75° W
Cosmos 2219 Rocket 2.8 23:32:07 10° NW 23:36:40 44° W 23:36:40 44° W
IDEFIX/ARIANE 42P 4.4 23:34:00 10° NE 23:37:47 20° E 23:38:55 19° ESE
Cosmos 2016 Rocket 4.3 23:35:28 10° N 23:41:29 57° E 23:43:07 44° SE
Cosmos 2322 4.4 23:41:21 10° NW 23:45:45 39° W 23:45:45 39° W
Cosmos 1898 Rocket 3.9 23:42:49 10° NNW 23:47:02 49° WNW 23:47:02 49° WNW
Cosmos 1151 Rocket 3.4 23:44:27 10° N 23:48:25 61° NE 23:48:25 61° NE
CZ-4 R/B 4.2 23:47:47 10° NNE 23:52:40 57° ESE 23:52:53 56° ESE
Cosmos 1937 Rocket 3.5 23:47:54 10° NNW 23:52:46 67° WNW 23:52:46 67° WNW
